Weather History for KPHP - July, 2014

Change the Weather History Date:

Sunday, July 20, 2014

  Actual Average Record
Temperature  
Mean Temperature 82 °F 76 °F  
Max Temperature 102 °F 90 °F 108 °F (1983)
Min Temperature 62 °F 61 °F 48 °F (1971)
Degree Days  
Heating Degree Days 0 0  
Month to date heating degree days 16 3  
Since 1 June heating degree days 94 66  
Since 1 July heating degree days 16 3  
Cooling Degree Days 17 11  
Month to date cooling degree days 142 183  
Year to date cooling degree days 238 333  
Since 1 June cooling degree days 198 306  
Growing Degree Days 32 (Base 50)    
Moisture  
Dew Point 62 °F    
Average Humidity 58    
Maximum Humidity 93    
Minimum Humidity 23    
Precipitation  
Precipitation 0.00 in 0.06 in 2.76 in (1999)
Month to date precipitation 0.08 1.46  
Year to date precipitation 8.90 11.31  
Sea Level Pressure  
Sea Level Pressure 29.66 in    
Wind  
Wind Speed 5 mph (NE)    
Max Wind Speed 14 mph    
Max Gust Speed 19 mph    
Visibility 10 miles    
Events      
T = Trace of Precipitation, MM = Missing Value Source: NWS Daily Summary

Daily Weather History Graph

Daily Weather History Graph

Search for Another Location

Airport or City:

Trip Planner

Search our weather history database for the weather conditions in past years. The results will help you decide how hot, cold, wet, or windy it might be!

Date:

Astronomy

Jul. 20, 2014 Rise Set
Actual Time 5:22 AM MDT 8:22 PM MDT
Civil Twilight 4:47 AM MDT 8:57 PM MDT
Nautical Twilight 4:03 AM MDT 9:41 PM MDT
Astronomical Twilight 3:10 AM MDT 10:33 PM MDT
Moon 12:39 AM MDT (7/20) 3:05 PM MDT (7/20)
Length of Visible Light 16h 09m
Length of Day
15h 00m
Waning Crescent, 33% of the Moon is Illuminated
Jul 20
Waning Crescent
Jul 26
New
Aug 3
First Quarter
Aug 10
Full
Aug 17
Last Quarter

Hourly Weather History & Observations

Time (MDT) Temp. Heat Index Dew Point Humidity Pressure Visibility Wind Dir Wind Speed Gust Speed Precip Events Conditions
12:55 AM 73.0 °F - 63.0 °F 71% 29.66 in 10.0 mi Calm Calm - N/A   Clear
1:55 AM 73.9 °F - 64.0 °F 71% 29.66 in 10.0 mi SSW 4.6 mph - N/A   Clear
2:55 AM 68.0 °F - 63.0 °F 84% 29.65 in 10.0 mi West 4.6 mph - N/A   Clear
3:55 AM 64.9 °F - 62.1 °F 90% 29.65 in 10.0 mi WNW 5.8 mph - N/A   Clear
4:55 AM 66.0 °F - 63.0 °F 90% 29.65 in 10.0 mi Calm Calm - N/A   Clear
5:55 AM 64.9 °F - 62.1 °F 90% 29.68 in 10.0 mi WNW 4.6 mph - N/A   Clear
6:55 AM 68.0 °F - 64.0 °F 87% 29.68 in 10.0 mi Calm Calm - N/A   Clear
7:55 AM 75.0 °F - 66.0 °F 73% 29.68 in 10.0 mi West 3.5 mph - N/A   Clear
8:55 AM 80.1 °F 82.3 °F 66.9 °F 64% 29.70 in 10.0 mi West 6.9 mph - N/A   Clear
9:55 AM 87.1 °F 89.2 °F 66.0 °F 49% 29.69 in 10.0 mi NNE 4.6 mph - N/A   Clear
10:55 AM 90.0 °F 91.7 °F 64.9 °F 43% 29.69 in 10.0 mi Calm Calm - N/A   Clear
11:55 AM 95.0 °F 94.4 °F 59.0 °F 30% 29.68 in 10.0 mi Variable 5.8 mph - N/A   Clear
12:55 PM 97.0 °F 94.6 °F 53.1 °F 23% 29.66 in 10.0 mi ENE 8.1 mph - N/A   Clear
1:55 PM 98.1 °F 96.4 °F 55.9 °F 24% 29.66 in 10.0 mi Variable 4.6 mph - N/A   Clear
2:55 PM 100.0 °F 98.3 °F 55.0 °F 22% 29.66 in 10.0 mi North - - N/A   Clear
3:55 PM 100.0 °F 99.2 °F 57.0 °F 24% 29.65 in 10.0 mi East 10.4 mph - N/A   Clear
4:55 PM 100.9 °F 101.6 °F 60.1 °F 26% 29.64 in 10.0 mi North - - N/A   Clear
5:55 PM 100.0 °F 101.8 °F 62.1 °F 29% 29.63 in 10.0 mi SE 8.1 mph - N/A   Clear
6:55 PM 97.0 °F 96.9 °F 60.1 °F 29% 29.64 in 10.0 mi SE 9.2 mph - N/A   Clear
7:55 PM 89.1 °F 89.0 °F 61.0 °F 39% 29.64 in 10.0 mi East 10.4 mph - N/A   Clear
8:55 PM 81.0 °F 81.6 °F 60.1 °F 49% 29.66 in 10.0 mi ENE 3.5 mph - N/A   Clear
9:55 PM 78.1 °F - 63.0 °F 60% 29.68 in 10.0 mi ENE 4.6 mph - N/A   Clear
10:55 PM 75.9 °F - 64.0 °F 67% 29.68 in 10.0 mi NE 5.8 mph - N/A   Clear
11:55 PM 73.0 °F - 64.0 °F 73% 29.68 in 10.0 mi Calm Calm - N/A   Clear